Location: Im Fang
(46.6019°N, 7.2397°E)
Time: 17:38:57
(UTC+00:00)

CZ-4C R/B - Pass Details

Date: 08 December 2019
Orbit: 647 x 1355 km, 63.4° (Epoch: 19 January)

Event Time Altitude Azimuth Distance (km) Brightness Sun altitude
Exits shadow 04:27:02 47° 304° (NW) 1,532 3.1 -25.6°
Maximum altitude 04:29:23 73° 236° (SW) 1,286 2.9 -25.2°
Drops below altitude 10° 04:37:35 10° 153° (SSE) 3,355 5.7 -23.8°
Sets 04:40:33 0° 152° (SSE) 4,355 6.4 -23.3°
